DLH846 EDDF-EKCH

Flight info

Callsign DLH846
Flight time 1h 11m
Altitude 37000
Route MARUN3W/25C MARUN Y150 TOLGI DCT SAS DCT MAKEL N851 GESKA Z711 MONAK MONAK5C
Aircraft A20N/M-SDE2E3FGHIRWXY/LB1

Departure

Time 2026-05-04 18:54
Airport Frankfurt Main Airport (EDDF)

Arrival

Time 2026-05-04 20:06
Airport Copenhagen Kastrup Airport (EKCH)
Time Latitude Longitude Altitude Speed Heading
2026-05-04 18:15 50.04925 8.58944 361 ft 0 kts 160°
2026-05-04 18:44 50.04926 8.58944 360 ft 1 kts 160°
2026-05-04 18:44 50.04949 8.58930 364 ft 4 kts 159°
2026-05-04 18:45 50.04974 8.58915 365 ft 4 kts 165°
2026-05-04 18:45 50.04999 8.58913 362 ft 4 kts 206°
2026-05-04 18:45 50.05014 8.58935 362 ft 1 kts 249°
2026-05-04 18:45 50.05016 8.58941 361 ft 0 kts 249°
2026-05-04 18:48 50.05015 8.58936 362 ft 2 kts 249°
2026-05-04 18:49 50.04999 8.58873 360 ft 11 kts 249°
2026-05-04 18:49 50.04965 8.58729 362 ft 15 kts 249°
2026-05-04 18:49 50.04919 8.58669 361 ft 9 kts 182°
2026-05-04 18:49 50.04853 8.58702 363 ft 0 kts 156°
2026-05-04 18:51 50.04845 8.58707 361 ft 5 kts 156°
2026-05-04 18:51 50.04778 8.58751 361 ft 15 kts 157°
2026-05-04 18:51 50.04655 8.58753 361 ft 17 kts 185°
2026-05-04 18:51 50.04573 8.58714 366 ft 13 kts 223°
2026-05-04 18:52 50.04502 8.58612 365 ft 15 kts 223°
2026-05-04 18:52 50.04475 8.58543 365 ft 0 kts 251°
2026-05-04 18:53 50.04469 8.58516 371 ft 14 kts 251°
2026-05-04 18:53 50.04347 8.58006 364 ft 85 kts 249°
2026-05-04 18:54 50.04073 8.56862 362 ft 138 kts 250°
2026-05-04 18:54 50.03690 8.55270 466 ft 169 kts 251°
2026-05-04 18:54 50.03258 8.53530 1012 ft 172 kts 251°
2026-05-04 18:54 50.02852 8.51798 1713 ft 171 kts 252°
2026-05-04 18:55 50.02366 8.50100 2251 ft 178 kts 237°
2026-05-04 18:55 50.00129 8.47923 3032 ft 209 kts 188°
2026-05-04 18:55 49.98675 8.47656 3758 ft 212 kts 187°
2026-05-04 18:56 49.97244 8.47367 4726 ft 208 kts 188°
2026-05-04 18:56 49.95800 8.46985 5779 ft 205 kts 195°
2026-05-04 18:56 49.94401 8.46338 6516 ft 221 kts 197°
2026-05-04 18:56 49.92874 8.45604 6835 ft 241 kts 201°
2026-05-04 18:57 49.91491 8.44164 6969 ft 243 kts 227°
2026-05-04 18:57 49.90698 8.41857 6991 ft 248 kts 255°
2026-05-04 18:57 49.90708 8.39178 6992 ft 254 kts 283°
2026-05-04 18:57 49.91568 8.36776 6990 ft 261 kts 311°
2026-05-04 18:58 49.93097 8.35227 6994 ft 267 kts 334°
2026-05-04 18:58 49.94892 8.34059 6989 ft 289 kts 336°
2026-05-04 18:58 49.96760 8.32891 6987 ft 288 kts 336°
2026-05-04 18:58 49.98618 8.31723 6986 ft 288 kts 335°
2026-05-04 18:59 50.00474 8.30537 6988 ft 289 kts 335°
2026-05-04 18:59 50.02331 8.29334 6984 ft 289 kts 335°
2026-05-04 18:59 50.04238 8.28364 6987 ft 291 kts 351°
2026-05-04 18:59 50.06259 8.28529 6984 ft 294 kts 15°
2026-05-04 19:00 50.08205 8.29523 6988 ft 294 kts 19°
2026-05-04 19:00 50.10169 8.30566 6986 ft 294 kts 19°
2026-05-04 19:00 50.12104 8.31591 6987 ft 294 kts 19°
2026-05-04 19:00 50.14041 8.32611 6991 ft 294 kts 18°
2026-05-04 19:01 50.15979 8.33627 6989 ft 294 kts 18°
2026-05-04 19:01 50.17916 8.34642 6988 ft 294 kts 18°
2026-05-04 19:01 50.19860 8.35661 7105 ft 296 kts 18°
2026-05-04 19:01 50.21826 8.36692 7684 ft 300 kts 18°
2026-05-04 19:02 50.23800 8.37729 8755 ft 300 kts 18°
2026-05-04 19:02 50.25796 8.38780 9707 ft 306 kts 18°
2026-05-04 19:02 50.27839 8.39856 10505 ft 317 kts 18°
2026-05-04 19:02 50.30005 8.40998 10859 ft 341 kts 18°
2026-05-04 19:03 50.32322 8.42249 11215 ft 361 kts 18°
2026-05-04 19:03 50.34706 8.43553 12085 ft 364 kts 18°
2026-05-04 19:03 50.36293 8.44425 12509 ft 367 kts 18°
2026-05-04 19:03 50.39542 8.46206 13543 ft 371 kts 18°
2026-05-04 19:04 50.41163 8.47093 14095 ft 374 kts 18°
2026-05-04 19:04 50.43636 8.48446 14820 ft 378 kts 18°
2026-05-04 19:04 50.46127 8.49810 15571 ft 382 kts 18°
2026-05-04 19:04 50.48651 8.51196 16304 ft 387 kts 20°
2026-05-04 19:05 50.51022 8.53229 17009 ft 392 kts 36°
2026-05-04 19:05 50.53211 8.55832 17725 ft 397 kts 37°
2026-05-04 19:05 50.55404 8.58495 18410 ft 401 kts 38°
2026-05-04 19:05 50.57615 8.61207 19045 ft 404 kts 38°
2026-05-04 19:06 50.59839 8.63950 19678 ft 408 kts 38°
2026-05-04 19:06 50.62079 8.66718 20290 ft 412 kts 38°
2026-05-04 19:06 50.64345 8.69520 20903 ft 416 kts 38°
2026-05-04 19:06 50.66630 8.72349 21508 ft 420 kts 38°
2026-05-04 19:07 50.68935 8.75207 22111 ft 424 kts 38°
2026-05-04 19:07 50.71265 8.78098 22697 ft 428 kts 38°
2026-05-04 19:07 50.73613 8.81015 23287 ft 432 kts 38°
2026-05-04 19:07 50.75986 8.83967 23731 ft 437 kts 38°
2026-05-04 19:08 50.78377 8.86945 23921 ft 438 kts 38°
2026-05-04 19:08 50.80781 8.89943 24202 ft 442 kts 38°
2026-05-04 19:08 50.83194 8.92957 24765 ft 443 kts 38°
2026-05-04 19:08 50.85625 8.95998 25240 ft 447 kts 38°
2026-05-04 19:09 50.88073 8.99063 25695 ft 451 kts 38°
2026-05-04 19:09 50.90543 9.02161 26138 ft 455 kts 38°
2026-05-04 19:09 50.93033 9.05288 26581 ft 458 kts 38°
2026-05-04 19:09 50.95540 9.08441 27016 ft 462 kts 38°
2026-05-04 19:10 50.98067 9.11623 27426 ft 465 kts 38°
2026-05-04 19:10 51.00609 9.14829 27842 ft 469 kts 37°
2026-05-04 19:10 51.03179 9.18049 28231 ft 472 kts 34°
2026-05-04 19:10 51.06000 9.20697 28597 ft 472 kts 23°
2026-05-04 19:11 51.09022 9.22789 28978 ft 474 kts 20°
2026-05-04 19:11 51.12091 9.24762 29335 ft 477 kts 19°
2026-05-04 19:11 51.15171 9.26776 29693 ft 480 kts 20°
2026-05-04 19:11 51.18261 9.28863 30049 ft 484 kts 20°
2026-05-04 19:12 51.21354 9.31006 30379 ft 486 kts 21°
2026-05-04 19:12 51.27565 9.35384 31062 ft 490 kts 21°
2026-05-04 19:12 51.30683 9.37597 31479 ft 490 kts 21°
2026-05-04 19:13 51.33796 9.39810 31932 ft 489 kts 21°
2026-05-04 19:13 51.36897 9.42018 32377 ft 488 kts 21°
2026-05-04 19:13 51.39992 9.44225 32794 ft 487 kts 21°
2026-05-04 19:13 51.43077 9.46426 32972 ft 485 kts 21°
2026-05-04 19:14 51.46162 9.48632 32992 ft 484 kts 21°
2026-05-04 19:14 51.52312 9.53035 32991 ft 484 kts 21°
2026-05-04 19:15 51.58460 9.57451 32989 ft 484 kts 21°
2026-05-04 19:15 51.64610 9.61882 32981 ft 484 kts 21°
2026-05-04 19:16 51.70758 9.66325 32980 ft 484 kts 21°
2026-05-04 19:16 51.76905 9.70780 32977 ft 484 kts 21°
2026-05-04 19:17 51.83052 9.75248 32978 ft 485 kts 21°
2026-05-04 19:17 51.89250 9.79767 32980 ft 485 kts 21°
2026-05-04 19:18 51.95403 9.84267 32981 ft 485 kts 21°
2026-05-04 19:18 52.01559 9.88783 32972 ft 486 kts 21°
2026-05-04 19:19 52.07711 9.93310 32975 ft 485 kts 21°
2026-05-04 19:19 52.13815 9.97816 32975 ft 485 kts 21°
2026-05-04 19:20 52.19954 10.02360 32970 ft 485 kts 21°
2026-05-04 19:20 52.26087 10.06914 32964 ft 485 kts 21°
2026-05-04 19:21 52.32225 10.11485 32967 ft 485 kts 21°
2026-05-04 19:21 52.38354 10.16064 32954 ft 485 kts 21°
2026-05-04 19:22 52.44488 10.20660 32958 ft 484 kts 21°
2026-05-04 19:22 52.50617 10.25267 32962 ft 484 kts 21°
2026-05-04 19:23 52.56784 10.29917 32963 ft 485 kts 21°
2026-05-04 19:23 52.62865 10.34517 32962 ft 485 kts 21°
2026-05-04 19:24 52.69034 10.39197 32955 ft 485 kts 21°
2026-05-04 19:24 52.75157 10.43857 32960 ft 485 kts 21°
2026-05-04 19:25 52.81241 10.48502 32961 ft 485 kts 21°
2026-05-04 19:25 52.87355 10.53184 32957 ft 485 kts 21°
2026-05-04 19:26 52.93471 10.57884 32954 ft 480 kts 21°
2026-05-04 19:26 52.99513 10.62540 32954 ft 479 kts 21°
2026-05-04 19:27 53.05552 10.67207 32956 ft 478 kts 20°
2026-05-04 19:27 53.11491 10.71818 32957 ft 470 kts 20°
2026-05-04 19:28 53.17456 10.76451 32956 ft 473 kts 20°
2026-05-04 19:28 53.23403 10.81091 32958 ft 472 kts 20°
2026-05-04 19:29 53.29349 10.85744 32956 ft 471 kts 20°
2026-05-04 19:29 53.35277 10.90399 32940 ft 469 kts 20°
2026-05-04 19:29 53.38220 10.92716 32698 ft 465 kts 20°
2026-05-04 19:30 53.41141 10.95019 32230 ft 462 kts 20°
2026-05-04 19:30 53.44045 10.97311 31652 ft 460 kts 20°
2026-05-04 19:30 53.46937 10.99597 31060 ft 458 kts 20°
2026-05-04 19:30 53.49851 11.01903 30479 ft 456 kts 20°
2026-05-04 19:31 53.52679 11.04145 29886 ft 455 kts 20°
2026-05-04 19:31 53.55528 11.06406 29330 ft 450 kts 20°
2026-05-04 19:31 53.58383 11.08677 28785 ft 446 kts 20°
2026-05-04 19:31 53.61171 11.10897 28261 ft 441 kts 21°
2026-05-04 19:32 53.63923 11.13093 28008 ft 434 kts 21°
2026-05-04 19:32 53.66658 11.15275 27971 ft 439 kts 20°
2026-05-04 19:32 53.69426 11.17484 27962 ft 441 kts 21°
2026-05-04 19:32 53.72160 11.19673 27962 ft 440 kts 21°
2026-05-04 19:33 53.74924 11.21891 27971 ft 440 kts 20°
2026-05-04 19:33 53.77653 11.24083 27970 ft 440 kts 20°
2026-05-04 19:33 53.80456 11.26338 27969 ft 440 kts 20°
2026-05-04 19:33 53.83219 11.28565 27965 ft 440 kts 20°
2026-05-04 19:34 53.85930 11.30753 27971 ft 440 kts 20°
2026-05-04 19:34 53.88739 11.33023 27964 ft 439 kts 20°
2026-05-04 19:34 53.91498 11.35256 27975 ft 439 kts 20°
2026-05-04 19:34 53.94255 11.37490 27977 ft 439 kts 20°
2026-05-04 19:35 53.97015 11.39730 27970 ft 439 kts 20°
2026-05-04 19:35 53.99772 11.41971 27977 ft 439 kts 20°
2026-05-04 19:35 54.02523 11.44211 27884 ft 437 kts 20°
2026-05-04 19:35 54.05254 11.46439 27523 ft 434 kts 20°
2026-05-04 19:36 54.07968 11.48657 27065 ft 431 kts 20°
2026-05-04 19:36 54.10661 11.50860 26560 ft 427 kts 20°
2026-05-04 19:36 54.13329 11.53045 26072 ft 424 kts 20°
2026-05-04 19:36 54.15973 11.55214 25581 ft 420 kts 20°
2026-05-04 19:37 54.18596 11.57368 25102 ft 417 kts 20°
2026-05-04 19:37 54.21197 11.59507 24623 ft 413 kts 20°
2026-05-04 19:37 54.23775 11.61631 24168 ft 409 kts 20°
2026-05-04 19:37 54.26297 11.63710 23713 ft 406 kts 20°
2026-05-04 19:38 54.28865 11.65830 23208 ft 403 kts 20°
2026-05-04 19:38 54.31345 11.67880 22690 ft 399 kts 20°
2026-05-04 19:38 54.33868 11.69968 22200 ft 395 kts 20°
2026-05-04 19:38 54.36330 11.72008 21687 ft 392 kts 20°
2026-05-04 19:39 54.38773 11.74036 21214 ft 388 kts 20°
2026-05-04 19:39 54.41162 11.76021 20745 ft 385 kts 20°
2026-05-04 19:39 54.43595 11.78046 20268 ft 382 kts 21°
2026-05-04 19:39 54.45974 11.80027 19806 ft 378 kts 21°
2026-05-04 19:40 54.48333 11.81992 19353 ft 376 kts 21°
2026-05-04 19:40 54.50675 11.83945 18917 ft 372 kts 21°
2026-05-04 19:40 54.52997 11.85882 18474 ft 370 kts 22°
2026-05-04 19:40 54.55301 11.87807 18017 ft 367 kts 22°
2026-05-04 19:41 54.57586 11.89721 17519 ft 364 kts 22°
2026-05-04 19:41 54.59851 11.91622 17063 ft 361 kts 22°
2026-05-04 19:41 54.62071 11.93628 16588 ft 360 kts 28°
2026-05-04 19:41 54.64148 11.96025 16122 ft 358 kts 31°
2026-05-04 19:42 54.66208 11.98413 15662 ft 356 kts 30°
2026-05-04 19:42 54.67572 11.99978 15364 ft 354 kts 30°
2026-05-04 19:42 54.69613 12.02318 14928 ft 351 kts 30°
2026-05-04 19:42 54.71641 12.04650 14486 ft 349 kts 30°
2026-05-04 19:43 54.73656 12.06976 14041 ft 347 kts 30°
2026-05-04 19:43 54.75653 12.09289 13608 ft 345 kts 30°
2026-05-04 19:43 54.77640 12.11595 13127 ft 342 kts 30°
2026-05-04 19:43 54.79603 12.13877 12820 ft 338 kts 30°
2026-05-04 19:44 54.81562 12.16157 12592 ft 340 kts 30°
2026-05-04 19:44 54.83527 12.18445 12385 ft 339 kts 30°
2026-05-04 19:44 54.85479 12.20723 12180 ft 337 kts 30°
2026-05-04 19:44 54.87421 12.22991 11978 ft 336 kts 30°
2026-05-04 19:45 54.89358 12.25256 11772 ft 335 kts 30°
2026-05-04 19:45 54.91287 12.27515 11575 ft 334 kts 30°
2026-05-04 19:45 54.93208 12.29766 11365 ft 333 kts 30°
2026-05-04 19:45 54.95125 12.32013 11173 ft 331 kts 30°
2026-05-04 19:46 54.97026 12.34243 10976 ft 327 kts 30°
2026-05-04 19:46 54.98886 12.36429 10775 ft 318 kts 30°
2026-05-04 19:46 55.00690 12.38551 10579 ft 309 kts 30°
2026-05-04 19:46 55.02454 12.40613 10380 ft 305 kts 30°
2026-05-04 19:47 55.04222 12.42669 10219 ft 306 kts 30°
2026-05-04 19:47 55.05988 12.44725 10071 ft 304 kts 30°
2026-05-04 19:47 55.07741 12.46770 9933 ft 303 kts 30°
2026-05-04 19:47 55.09491 12.48817 9783 ft 303 kts 30°
2026-05-04 19:48 55.11236 12.50860 9629 ft 302 kts 30°
2026-05-04 19:48 55.12975 12.52901 9469 ft 301 kts 30°
2026-05-04 19:48 55.14709 12.54937 9314 ft 299 kts 30°
2026-05-04 19:48 55.16434 12.56965 9150 ft 298 kts 30°
2026-05-04 19:49 55.18155 12.58990 8991 ft 298 kts 30°
2026-05-04 19:49 55.19868 12.61008 8949 ft 296 kts 30°
2026-05-04 19:49 55.21583 12.63030 8950 ft 298 kts 30°
2026-05-04 19:49 55.23351 12.64882 8947 ft 295 kts 21°
2026-05-04 19:50 55.25257 12.66128 8948 ft 292 kts 13°
2026-05-04 19:50 55.27192 12.67203 8948 ft 292 kts 13°
2026-05-04 19:50 55.29123 12.68298 8951 ft 292 kts 14°
2026-05-04 19:50 55.31051 12.69398 8953 ft 291 kts 14°
2026-05-04 19:51 55.32978 12.70500 8954 ft 292 kts 14°
2026-05-04 19:51 55.34906 12.71603 8932 ft 290 kts 14°
2026-05-04 19:51 55.36804 12.72689 8683 ft 289 kts 14°
2026-05-04 19:51 55.38715 12.73783 8320 ft 288 kts 14°
2026-05-04 19:52 55.40613 12.74869 7935 ft 286 kts 14°
2026-05-04 19:52 55.42499 12.75951 7546 ft 284 kts 14°
2026-05-04 19:52 55.44375 12.77027 7172 ft 283 kts 14°
2026-05-04 19:52 55.46240 12.78098 6793 ft 281 kts 14°
2026-05-04 19:53 55.48092 12.79162 6427 ft 279 kts 14°
2026-05-04 19:53 55.49935 12.80223 6050 ft 277 kts 14°
2026-05-04 19:53 55.51764 12.81276 5672 ft 275 kts 14°
2026-05-04 19:53 55.53604 12.82335 5291 ft 274 kts 14°
2026-05-04 19:54 55.55379 12.83362 5043 ft 267 kts 14°
2026-05-04 19:54 55.57096 12.84553 4935 ft 256 kts 19°
2026-05-04 19:54 55.58710 12.85723 4837 ft 245 kts 18°
2026-05-04 19:54 55.60254 12.86836 4739 ft 234 kts 18°
2026-05-04 19:55 55.61731 12.87899 4653 ft 224 kts 18°
2026-05-04 19:55 55.63086 12.89196 4480 ft 221 kts 32°
2026-05-04 19:55 55.64258 12.90962 4238 ft 221 kts 38°
2026-05-04 19:55 55.65396 12.92766 4019 ft 217 kts 38°
2026-05-04 19:56 55.66530 12.94540 3994 ft 222 kts 38°
2026-05-04 19:56 55.67679 12.96333 3938 ft 218 kts 38°
2026-05-04 19:56 55.68815 12.98106 3707 ft 217 kts 38°
2026-05-04 19:56 55.69944 12.99870 3470 ft 215 kts 38°
2026-05-04 19:57 55.71064 13.01622 3187 ft 214 kts 38°
2026-05-04 19:57 55.72279 13.03015 3000 ft 203 kts 17°
2026-05-04 19:57 55.73646 13.03861 2982 ft 209 kts 15°
2026-05-04 19:57 55.75018 13.04680 2986 ft 208 kts 15°
2026-05-04 19:58 55.76395 13.05504 2984 ft 209 kts 15°
2026-05-04 19:58 55.77768 13.06327 2983 ft 208 kts 15°
2026-05-04 19:58 55.79168 13.06726 2983 ft 203 kts 347°
2026-05-04 19:58 55.80412 13.05695 2982 ft 198 kts 317°
2026-05-04 19:59 55.81434 13.04066 2970 ft 197 kts 315°
2026-05-04 19:59 55.82388 13.02324 2963 ft 195 kts 299°
2026-05-04 19:59 55.82700 13.00025 2974 ft 196 kts 263°
2026-05-04 19:59 55.82376 12.97656 2977 ft 198 kts 255°
2026-05-04 20:00 55.81958 12.95396 2960 ft 186 kts 241°
2026-05-04 20:00 55.81005 12.93978 3017 ft 184 kts 211°
2026-05-04 20:00 55.79846 12.92973 2979 ft 184 kts 210°
2026-05-04 20:00 55.78753 12.91816 2984 ft 183 kts 218°
2026-05-04 20:01 55.77753 12.90437 2986 ft 181 kts 224°
2026-05-04 20:01 55.76805 12.88960 2988 ft 181 kts 225°
2026-05-04 20:01 55.75854 12.87472 2991 ft 182 kts 225°
2026-05-04 20:01 55.74905 12.85992 2988 ft 180 kts 225°
2026-05-04 20:02 55.74005 12.84591 2986 ft 163 kts 225°
2026-05-04 20:02 55.73156 12.83262 2881 ft 164 kts 225°
2026-05-04 20:02 55.72304 12.81935 2639 ft 162 kts 225°
2026-05-04 20:02 55.71464 12.80624 2416 ft 162 kts 226°
2026-05-04 20:03 55.70610 12.79295 2192 ft 162 kts 225°
2026-05-04 20:03 55.69770 12.77988 1959 ft 159 kts 226°
2026-05-04 20:03 55.68931 12.76680 1761 ft 161 kts 226°
2026-05-04 20:03 55.68092 12.75376 1536 ft 160 kts 225°
2026-05-04 20:04 55.67261 12.74083 1312 ft 158 kts 225°
2026-05-04 20:04 55.66450 12.72827 1096 ft 149 kts 225°
2026-05-04 20:04 55.65703 12.71665 887 ft 137 kts 225°
2026-05-04 20:04 55.64973 12.70528 702 ft 139 kts 224°
2026-05-04 20:05 55.64253 12.69412 504 ft 138 kts 224°
2026-05-04 20:05 55.63525 12.68281 320 ft 138 kts 224°
2026-05-04 20:05 55.62807 12.67167 132 ft 137 kts 224°
2026-05-04 20:05 55.62106 12.66071 22 ft 124 kts 220°
2026-05-04 20:06 55.61676 12.65412 24 ft 39 kts 221°
2026-05-04 20:06 55.61603 12.65156 23 ft 27 kts 271°
2026-05-04 20:06 55.61652 12.64946 24 ft 4 kts 314°
2026-05-04 20:06 55.61664 12.64924 24 ft 0 kts 313°
2026-05-04 20:07 55.61676 12.64901 23 ft 8 kts 313°
2026-05-04 20:08 55.61740 12.64813 26 ft 14 kts 334°
2026-05-04 20:08 55.61848 12.64791 23 ft 17 kts
2026-05-04 20:08 55.61948 12.64876 24 ft 10 kts 34°
2026-05-04 20:08 55.62014 12.64954 28 ft 6 kts 32°
2026-05-04 20:09 55.62055 12.64998 26 ft 9 kts 31°
2026-05-04 20:09 55.62081 12.65027 26 ft 0 kts 32°
2026-05-04 20:09 55.62097 12.65046 25 ft 7 kts 33°
2026-05-04 20:10 55.62138 12.65096 24 ft 7 kts 35°
2026-05-04 20:10 55.62174 12.65140 26 ft 7 kts 34°
2026-05-04 20:10 55.62228 12.65183 25 ft 10 kts 17°
2026-05-04 20:10 55.62258 12.65139 23 ft 7 kts 299°
2026-05-04 20:11 55.62286 12.65050 26 ft 10 kts 299°
2026-05-04 20:11 55.62328 12.64930 24 ft 13 kts 305°
2026-05-04 20:11 55.62384 12.64785 25 ft 16 kts 306°
2026-05-04 20:11 55.62447 12.64615 26 ft 13 kts 303°
2026-05-04 20:12 55.62454 12.64596 24 ft 3 kts 303°
2026-05-04 20:12 55.62473 12.64545 24 ft 7 kts 303°
2026-05-04 20:12 55.62506 12.64457 23 ft 10 kts 304°
2026-05-04 20:12 55.62552 12.64335 25 ft 13 kts 303°
2026-05-04 20:13 55.62601 12.64203 24 ft 11 kts 303°
2026-05-04 20:13 55.62627 12.64173 23 ft 0 kts 14°
2026-05-04 20:13 55.62628 12.64177 23 ft 1 kts 36°
2026-05-04 20:13 55.62646 12.64200 23 ft 5 kts 35°
2026-05-04 20:14 55.62666 12.64225 23 ft 2 kts 35°
2026-05-04 20:14 55.62676 12.64235 26 ft 1 kts 32°
2026-05-04 20:14 55.62677 12.64237 25 ft 1 kts 32°
2026-05-04 20:14 55.62673 12.64233 23 ft 0 kts 31°